Location: Unspecified
(0.0000°N, 0.0000°E)
Time: 23:20:17
(UTC+01:00)

Cosmos 1538 Rocket - Visible Passes

Search period start: 18 December 2014 00:00
Search period end: 28 December 2014 00:00
Orbit: 754 x 792 km, 74.0° (Epoch: 18 December)

Date Brightness Start Highest point End Pass type
(mag) Time Alt. Az. Time Alt. Az. Time Alt. Az.
18 Dec 5.8 19:15:39 10° SW 19:20:21 33° WNW 19:24:59 10° NNW visible
19 Dec 5.4 06:06:34 10° N 06:11:27 40° ENE 06:16:24 10° SSE visible
20 Dec 6.4 05:32:06 10° NNE 05:35:58 21° ENE 05:39:51 10° SE visible
22 Dec 4.0 06:01:32 10° NNW 06:06:48 89° WSW 06:12:08 10° SSE visible
23 Dec 5.0 05:26:17 10° N 05:31:18 46° ENE 05:36:23 10° SSE visible
24 Dec 6.1 04:52:06 12° NNE 04:55:48 24° ENE 04:59:59 10° SE visible
25 Dec 6.7 04:18:29 10° ENE 04:20:18 12° ENE 04:22:07 10° E visible
25 Dec 4.5 05:58:36 17° NW 06:02:09 39° WSW 06:07:06 10° S visible
26 Dec 3.9 05:24:38 39° NNW 05:26:38 79° WSW 05:31:59 10° S visible
27 Dec 4.6 04:50:37 50° ENE 04:51:08 53° ENE 04:56:19 10° SSE visible
